Weather Roundup
Issued by NWS Chicago, IL

Home | Current Version | Previous Version | Text Only | Print | Product List | Glossary On
Versions: 1 2 3 4 5 6 7 8 9 10 11 12 13 14 15 16 17 18 19 20 21 22 23 24 25 26 27 28 29 30 31 32 33 34 35 36 37 38 39 40 41 42 43 44 45 46 47 48 49 50
000
NZUS59 KLOT 291512
HRRLOT

CHICAGO AREA WEATHER ROUNDUP
NATIONAL WEATHER SERVICE CHICAGO/ROMEOVILLE IL
1000 AM CDT FRI MAY 29 2015

NOTE: "FAIR" INDICATES FEW OR NO CLOUDS BELOW 12,000 FEET WITH NO
SIGNIFICANT WEATHER AND/OR OBSTRUCTIONS TO VISIBILITY.

* THESE STATIONS ARE NOT UNDER NWS QUALITY CONTROL. THEY ALSO MAY NOT
  REPORT WEATHER SUCH AS PRECIPITATION OR FOG.

ILZ005-006-012>014-019>023-291600-
NORTHEAST ILLINOIS

CITY           SKY/WX    TMP DP  RH WIND       PRES   REMARKS
OHARE          PTSUNNY   77  64  64 S15       30.03F
MIDWAY         PTSUNNY   80  65  59 SW15G22   30.03F HX  82
AURORA         PTSUNNY   77  65  66 S12       30.03F
LANSING*       MOSUNNY   78  64  62 SW13      30.05F HX  80
JOLIET*        MOSUNNY   78  68  73 S9        30.04F
WAUKEGAN       MOSUNNY   78  66  66 S14       30.02F HX  80
DUPAGE AIRPORT MOSUNNY   78  66  66 S13G23    30.02F HX  80
WHEELING       MOSUNNY   78  64  61 S16       30.04F HX  80
KANKAKEE*      PTSUNNY   80  68  68 S15       30.06S HX  82
MORRIS*        PTSUNNY   79  65  62 S12G18    30.02F HX  80
LEWIS AIRPORT* MOSUNNY   77  65  67 S13       30.04F
NORTHERLY IS     N/A     78  63  59 S10         N/A  HX  80
$$

WIZ051-052-058>065-066-070>072-291600-
SOUTHEAST WISCONSIN

CITY           SKY/WX    TMP DP  RH WIND       PRES   REMARKS
MILWAUKEE      PTSUNNY   77  64  64 SW12      30.01F
KENOSHA*       PTSUNNY   79  66  64 S13G21    30.02F HX  81
RACINE*        MOSUNNY   74  62  66 SE5       30.03F
BURLINGTON     MOSUNNY   77  64  63 S12       30.01F
WAUKESHA       MOSUNNY   73  63  68 S7        30.03F
WEST BEND      CLOUDY    72  59  64 S6        30.02F
$$

INZ001>003-010>013-019-020-291600-
NORTHWEST INDIANA

CITY           SKY/WX    TMP DP  RH WIND       PRES   REMARKS
GARY*          PTSUNNY   79  66  65 SW7       30.06F HX  81
MICHIGAN CITY* NOT AVBL
RENSSELAER*    NOT AVBL
VALPARAISO     SUNNY     79  65  62 S13       30.07F HX  81
$$

LMZ740>746-291600-
SOUTHERN LAKE MICHIGAN

STATION/POSITION TIME  SKY/WX   TEMP WIND        PRES    VSBY
                                AIR  DIR/SP/G
                 (UTC)          (F)  (DEG/KT/KT) (MB)    (MI)
HARRISON CRIB    1400            70  160/ 10/ 13   N/A
BURNHAM HARBOR   1500            78  210/  5/ 13   N/A
CALUMET HARBOR   1418            76  180/  9/ 12   N/A
BURNS HARBOR     1400            75  180/ 11/ 13 1018.6R
MICHIGAN CITY    1400            73  170/  9/ 13   N/A
$$

ABBREVIATIONS USED IN REMARKS
   TC - TEMPERATURE IN CELSIUS
  WCI - WIND CHILL INDEX
   HX - HEAT INDEX
  VSB - VISIBILITY
$$


USA.gov is the U.S. government's official web portal to all federal, state and local government web resources and services.